STARLINK-32210 (60594 NORAD) Tracking and Keplerian Element Data

This shows tracking and keplerian element data for the satellite.

Feedback or suggestion? Click here.




ElementValue
Catalog60594
NameSTARLINK-32210
Epoch Orbit951
Epoch Day286.82499672
Epoch Year2024
RAAN169.6454
Inclination53.1607
Eccentricity0.0001411
Argument of Perigee70.6132
Mean Anonmoly289.5025
Mean Motion15.3961751
Decay Rate8.4E-07
L11 60594U 24150M 24286.82499672 .00000084 00000+0 12075-4 0 9995
L22 60594 53.1607 169.6454 0001411 70.6132 289.5025 15.39617510 9513



Live tracking and technical data element details for STARLINK-32210 (NORAD 60594). STARLINK-32210 can be tracked NOW for your location showing map with azimuth and elevation plus other details from your city location.







IsCatalogInMostPopularTable: catalog: 60594, numindb: 9
Update: records affected: 1



GetName: 60594 STARLINK-32210

Hit Count: updated at: Wed, 04 Dec 2024 18:16:56 GMT